[[{"header":{"parameterUnit":"m.s-1","parameterCategory":1,"la1":30.2991,"la2":30.254,"lo1":-89.0895,"lo2":-89.0444,"dy":0.0017,"dx":0.0017,"nx":28,"ny":28,"refTime":"2024-06-06T03:00:00:Z","depth":0,"parameterNumber":2,"parameterNumberName":"U-component_of_WINDS"},"data":[0,0,0,0,0,0,0,0,0,0,0,0,0,0,0,0,0,0,0,0,0,0,0,0,0,0,0,0,0,0,0,0,0,0,0,0,0,0,0,0,0,0,0,0,0,0,0,0,0,0,0,0,0,0,0,0,0,0,1.8195,1.8196,0,1.8296,1.8297,1.8298,1.8296,1.8295,1.8294,1.8292,1.8392,1.8396,1.84,0,0,0,0,0,0,0,0,0,0,0,0,0,1.7996,1.8,1.8194,1.8196,1.8197,1.8296,1.8297,1.8298,1.8297,1.8295,1.8293,1.8292,1.8391,1.8396,1.84,0,0,0,0,0,0,0,0,0,0,0,0,0,1.8088,1.8001,1.8194,1.8208,1.821,1.8295,1.8297,1.8299,1.8297,1.8295,1.8293,1.8291,1.8389,1.8395,1.8401,1.8478,0,0,1.8419,1.8421,0,0,0,0,0,0,0,0,1.8083,1.8096,1.8205,1.8207,1.821,1.8281,1.8264,1.8359,1.8297,1.8264,1.8292,1.829,1.8357,1.8365,1.8389,1.8482,1.8487,1.8419,1.8423,1.8426,1.8427,0,0,0,0,0,0,0,1.8077,1.8091,1.8234,1.8206,1.821,1.8208,1.8219,1.8282,1.832,1.8267,1.8267,1.8279,1.8358,1.8383,1.8391,1.8488,1.8419,1.8424,1.8428,1.843,1.865,1.8652,0,0,0,0,0,0,1.8068,1.8086,1.8231,1.8237,1.814,1.8213,1.8226,1.826,1.832,1.8327,1.8281,1.8279,1.8374,1.8384,1.8394,1.8488,1.8425,1.8431,1.8434,1.8648,1.8651,1.8653,0,0,0,0,0,0,1.8064,1.8081,1.8227,1.8162,1.818,1.8219,1.8258,1.8264,1.8289,1.833,1.8337,1.8299,1.8373,1.8386,1.8457,1.8491,1.8434,1.8439,1.8645,1.8649,1.8652,1.8675,0,0,0,0,0,0,1.8058,1.8079,1.811,1.8163,1.8184,1.8289,1.826,1.8267,1.8299,1.8297,1.835,1.8356,1.8372,1.8449,1.8463,1.8498,1.8444,1.8642,1.8647,1.8651,1.8671,1.8679,1.8685,0,0,0,0,0,1.8051,1.8111,1.8111,1.8129,1.8223,1.8291,1.8303,1.8321,1.8302,1.8332,1.8359,1.8355,1.8486,1.8456,1.8472,1.8509,1.864,1.8645,1.8651,1.8668,1.8677,1.8685,0,0,0,0,0,0,1.8059,1.8118,1.8119,1.8198,1.824,1.8291,1.8329,1.833,1.8377,1.8373,1.8393,1.8405,1.8476,1.85,1.8466,1.8587,1.856,1.8569,1.8568,1.8577,1.8584,1.8576,1.8448,0,0,0,0,0,1.8071,1.8123,1.8171,1.8236,1.8257,1.829,1.832,1.8331,1.8374,1.8391,1.8424,1.8465,1.8515,1.8548,1.8597,1.8676,1.8686,1.871,1.8717,1.8722,1.8729,1.8772,1.8782,1.867,1.867,1.867,0,0,1.8094,1.8133,1.8164,1.8239,1.8272,1.8325,1.8304,1.836,1.8399,1.84,1.8469,1.8494,1.8541,1.8617,1.8652,1.8639,1.8762,1.8729,1.8733,1.8736,1.8778,1.8789,1.8798,1.8674,1.8673,1.8673,0,0,1.8162,1.8198,1.8256,1.8291,1.8342,1.8364,1.8378,1.8429,1.8447,1.8517,1.8518,1.8564,1.8651,1.8685,1.8713,1.8797,1.8794,1.8812,1.8848,1.889,1.8898,1.8906,1.8935,1.8945,1.8819,1.8819,1.882,0,1.8184,1.8264,1.8285,1.8342,1.8375,1.838,1.8438,1.8471,1.8535,1.8557,1.8543,1.8652,1.8685,1.8768,1.8788,1.8812,1.8827,1.8805,1.8896,1.8904,1.8911,1.8939,1.895,1.8821,1.8821,1.8821,1.8821,0,1.8288,1.8343,1.8384,1.8448,1.8485,1.8543,1.8572,1.8607,1.8615,1.8638,1.8709,1.8749,1.8805,1.8827,1.8834,1.8911,1.8902,1.8892,1.8865,1.8923,1.8949,1.896,1.8824,1.8823,1.8823,1.8822,0,0,1.8361,1.8438,1.8453,1.8482,1.854,1.8583,1.8641,1.8698,1.8727,1.8773,1.882,1.8895,1.8886,1.8918,1.893,1.8967,1.903,1.8953,1.8954,1.8964,1.9116,1.9121,1.9133,1.903,1.9032,1.9034,1.9111,0,1.8435,1.8539,1.856,1.8649,1.87,1.8707,1.8757,1.8798,1.8822,1.8868,1.8893,1.8945,1.893,1.895,1.8987,1.9014,1.906,1.9009,1.9073,1.9075,1.9058,1.9147,1.9153,1.9224,1.9122,1.9123,1.9125,0,1.8534,1.8583,1.8678,1.873,1.8752,1.8797,1.8852,1.8896,1.8943,1.8957,1.8995,1.9003,1.9062,1.9035,1.9116,1.9081,1.9108,1.9126,1.9129,1.9134,1.9101,1.9152,1.9248,1.9258,1.9141,1.914,1.9139,0,1.8576,1.8666,1.8734,1.876,1.8823,1.8854,1.8882,1.8927,1.896,1.9007,1.9029,1.9082,1.9111,1.9152,1.9174,1.9152,1.9253,1.9228,1.9266,1.9265,1.9284,1.9282,1.9383,1.9306,1.9306,1.9305,1.9305,0,1.8655,1.8712,1.8754,1.8796,1.886,1.8885,1.8947,1.8975,1.9015,1.9061,1.9071,1.9114,1.9142,1.9188,1.9206,1.927,1.9284,1.9296,1.9299,1.9294,1.9292,1.931,1.9305,1.9308,1.9308,1.9307,1.9307,0,1.8712,1.8743,1.8817,1.8873,1.8888,1.8932,1.8979,1.9019,1.9044,1.9102,1.9117,1.9155,1.9211,1.9238,1.9307,1.9319,1.9391,1.9393,1.9376,1.9377,1.9412,1.9408,1.9527,1.9543,1.9456,1.9457,1.9458,0,1.8758,1.8803,1.8864,1.8896,1.8925,1.8977,1.9012,1.9038,1.9074,1.9131,1.9164,1.9221,1.9267,1.9356,1.9389,1.9442,1.9443,1.9481,1.9451,1.9444,1.9442,1.9438,1.9442,1.9486,1.9487,1.9487,1.9488,0,1.8838,1.8852,1.8902,1.8958,1.9,1.9045,1.9089,1.9115,1.9148,1.9187,1.9245,1.9282,1.9353,1.9409,1.9464,1.9492,1.9495,1.9498,1.9509,1.9502,1.949,1.9496,1.9388,1.9494,1.9494,1.9493,1.9493,1.9493,1.889,1.893,1.8979,1.9035,1.9072,1.9113,1.9154,1.9185,1.9234,1.9295,1.9308,1.9369,1.9415,1.949,1.952,1.9567,1.9558,1.9575,1.9579,1.9582,1.9583,1.9485,1.9578,1.9577,1.9577,1.9577,1.9577,0,1.8968,1.9001,1.9052,1.9115,1.9159,1.9161,1.9211,1.9247,1.9301,1.9345,1.9391,1.9458,1.9512,1.9551,1.9606,1.9636,1.9639,1.965,1.9647,1.9653,1.9588,1.9572,1.9647,1.9647,1.9647,1.9647,1.9647,1.9647,1.9014,1.9081,1.9101,1.9187,1.9219,1.928,1.9308,1.9347,1.9382,1.9456,1.9502,1.9528,1.9569,1.9628,1.9678,1.9687,1.9706,1.9717,1.9726,1.9665,1.9657,1.965,1.9635,1.9721,1.9721,1.9786,1.9787,1.9787]},{"header":{"parameterUnit":"m.s-1","parameterCategory":1,"la1":30.2991,"la2":30.254,"lo1":-89.0895,"lo2":-89.0444,"dy":0.0017,"dx":0.0017,"nx":28,"ny":28,"refTime":"2024-06-06T03:00:00:Z","depth":0,"parameterNumber":3,"parameterNumberName":"V-component_of_WINDS"},"data":[0,0,0,0,0,0,0,0,0,0,0,0,0,0,0,0,0,0,0,0,0,0,0,0,0,0,0,0,0,0,0,0,0,0,0,0,0,0,0,0,0,0,0,0,0,0,0,0,0,0,0,0,0,0,0,0,0,0,3.3683,3.3683,0,3.3665,3.3665,3.3665,3.3603,3.3601,3.36,3.3599,3.3581,3.3582,3.3583,0,0,0,0,0,0,0,0,0,0,0,0,0,3.3665,3.3666,3.3683,3.3683,3.3683,3.3665,3.3665,3.3665,3.3603,3.3601,3.36,3.3598,3.3581,3.3582,3.3583,0,0,0,0,0,0,0,0,0,0,0,0,0,3.3663,3.3666,3.3683,3.365,3.3647,3.3665,3.3665,3.3665,3.3603,3.3601,3.3599,3.3597,3.3581,3.3582,3.3583,3.3633,0,0,3.3587,3.3587,0,0,0,0,0,0,0,0,3.3663,3.3663,3.3655,3.3652,3.3649,3.3634,3.3652,3.3654,3.3604,3.362,3.3599,3.3596,3.3601,3.36,3.3601,3.3632,3.3631,3.3587,3.3588,3.3588,3.3589,0,0,0,0,0,0,0,3.3663,3.3664,3.3676,3.3655,3.3651,3.3636,3.3633,3.3652,3.3622,3.3618,3.3614,3.3612,3.3598,3.36,3.36,3.3631,3.3587,3.3588,3.3589,3.3589,3.3702,3.3704,0,0,0,0,0,0,3.3668,3.3664,3.3677,3.3676,3.3651,3.3638,3.3635,3.3641,3.3622,3.3617,3.3614,3.361,3.3599,3.3599,3.36,3.3656,3.3588,3.3589,3.359,3.37,3.3703,3.3705,0,0,0,0,0,0,3.3668,3.367,3.3677,3.3669,3.3669,3.3641,3.3648,3.3642,3.3643,3.3619,3.3613,3.3622,3.3597,3.3598,3.3625,3.3655,3.359,3.3591,3.3697,3.3701,3.3704,3.3771,0,0,0,0,0,0,3.3668,3.367,3.3688,3.367,3.3669,3.3703,3.3649,3.3643,3.3646,3.3639,3.3624,3.362,3.3596,3.3624,3.3626,3.3655,3.3592,3.3695,3.3699,3.3703,3.3766,3.3776,3.3785,0,0,0,0,0,3.3667,3.3708,3.3689,3.3691,3.3691,3.3705,3.3705,3.3676,3.3648,3.3666,3.3651,3.362,3.3652,3.3627,3.3629,3.3659,3.3693,3.3698,3.3703,3.3761,3.3774,3.3784,0,0,0,0,0,0,3.373,3.3705,3.3684,3.372,3.3715,3.3694,3.3716,3.369,3.3693,3.3687,3.3652,3.365,3.3682,3.3674,3.3646,3.3707,3.3667,3.3673,3.3711,3.3722,3.3732,3.3733,3.3593,0,0,0,0,0,3.3749,3.3761,3.3738,3.3772,3.3771,3.3744,3.3749,3.3728,3.3721,3.3719,3.3705,3.37,3.3709,3.3716,3.3722,3.3765,3.3761,3.3787,3.3796,3.3804,3.3809,3.3831,3.3842,3.3722,3.3722,3.3722,0,0,3.3786,3.3774,3.3784,3.3785,3.3778,3.3792,3.3743,3.376,3.377,3.3721,3.3746,3.3736,3.3729,3.3764,3.3779,3.3758,3.3842,3.3811,3.3817,3.3818,3.3838,3.3849,3.3859,3.3725,3.3725,3.3724,0,0,3.3861,3.3854,3.3881,3.3876,3.3867,3.3849,3.3856,3.3839,3.3831,3.3855,3.3819,3.3831,3.3847,3.3843,3.3843,3.3919,3.3891,3.3922,3.3971,3.3993,3.4003,3.4011,3.4037,3.4047,3.3928,3.3928,3.3928,0,3.3909,3.3928,3.3898,3.3917,3.3919,3.3876,3.3904,3.39,3.3895,3.3897,3.3874,3.3893,3.3885,3.3919,3.3937,3.3939,3.3946,3.3923,3.4004,3.4012,3.4019,3.4044,3.4054,3.3932,3.3931,3.3931,3.3931,0,3.3987,3.4002,3.4025,3.402,3.4024,3.4048,3.4021,3.403,3.4009,3.3994,3.4019,3.4008,3.4012,3.4019,3.3999,3.405,3.4037,3.401,3.3969,3.4035,3.4057,3.4067,3.3937,3.3936,3.3935,3.3934,0,0,3.41,3.4079,3.4088,3.4085,3.4073,3.4084,3.4106,3.411,3.4117,3.4115,3.4133,3.4148,3.4122,3.4123,3.4102,3.4121,3.4181,3.4091,3.409,3.4107,3.4237,3.4257,3.4268,3.4163,3.4165,3.4166,3.4237,0,3.4171,3.4206,3.418,3.422,3.4233,3.4194,3.4213,3.4208,3.4195,3.4205,3.419,3.4201,3.4167,3.4167,3.4185,3.417,3.4207,3.4165,3.4179,3.418,3.418,3.428,3.4301,3.4368,3.4246,3.4247,3.4249,0,3.4257,3.4259,3.4301,3.4286,3.4291,3.4308,3.431,3.432,3.4314,3.4303,3.4304,3.4278,3.4299,3.426,3.4289,3.4261,3.4266,3.426,3.4262,3.4261,3.4217,3.4281,3.4389,3.4399,3.4262,3.4261,3.426,0,3.4334,3.4347,3.4374,3.4373,3.4357,3.4371,3.4365,3.4357,3.4361,3.4363,3.4365,3.437,3.4372,3.4376,3.4353,3.4327,3.4384,3.4343,3.4376,3.4377,3.4388,3.4388,3.4498,3.4394,3.4394,3.4393,3.4393,0,3.4415,3.4442,3.4408,3.4424,3.4453,3.4424,3.4454,3.4444,3.4437,3.4451,3.4418,3.4432,3.4401,3.4412,3.4394,3.442,3.4421,3.4413,3.4408,3.4416,3.4416,3.4417,3.4411,3.4396,3.4396,3.4395,3.4395,0,3.4505,3.4483,3.451,3.4493,3.449,3.4512,3.4498,3.4512,3.4498,3.4516,3.4519,3.4496,3.4507,3.4485,3.4493,3.4481,3.4518,3.4505,3.4519,3.4515,3.4549,3.4546,3.4662,3.4676,3.4564,3.4565,3.4566,0,3.4557,3.4577,3.4562,3.4569,3.4565,3.4577,3.4581,3.4554,3.456,3.4555,3.457,3.4579,3.4584,3.4604,3.4588,3.4594,3.4581,3.4622,3.4582,3.4589,3.4581,3.458,3.4581,3.463,3.4631,3.4632,3.4633,0,3.4652,3.464,3.4647,3.4652,3.4657,3.4659,3.4659,3.4667,3.4637,3.4646,3.4657,3.4661,3.467,3.4678,3.4681,3.4675,3.465,3.4646,3.4654,3.4661,3.4668,3.4664,3.4541,3.4643,3.4642,3.4641,3.4641,3.464,3.4723,3.4739,3.4732,3.4741,3.4738,3.4739,3.4752,3.4739,3.4748,3.4752,3.4736,3.4751,3.4745,3.4746,3.4744,3.4755,3.4737,3.4748,3.4751,3.4754,3.4759,3.4667,3.4756,3.4756,3.4755,3.4755,3.4755,0,3.4815,3.4809,3.4818,3.4819,3.4826,3.4802,3.48,3.4808,3.4822,3.4819,3.4825,3.4838,3.4847,3.4832,3.4839,3.4851,3.4839,3.4853,3.4851,3.4851,3.4775,3.4767,3.4863,3.4863,3.4863,3.4863,3.4863,3.4863,3.4864,3.4889,3.4878,3.4902,3.4895,3.4909,3.491,3.4911,3.4908,3.4924,3.4932,3.4922,3.4915,3.4921,3.4928,3.4924,3.4927,3.4946,3.4937,3.4867,3.4856,3.4846,3.4838,3.4947,3.4947,3.5011,3.5012,3.5012]}]]